www.pogodaiklimat.ru

Погода и климат >> Архив погоды >> Россия >> Якутия >> Сухана


ПОГОДА в Сухане

  • Прогноз погоды в Сухане
  • Монитор погоды в Сухане

АРХИВ ПОГОДЫ в Сухане

Время (UTC), дата Ветер
(напр.,м/с)
 
Видим.   Явления Облачность Т
(С)
Тd
(С)
f
(%)
Тe
(С)
Тes
(С)
Комфортность P
(гПа)
Po
(гПа)
Тmin
(С)
Tmax
(С)
R
(мм)
R24
(мм)
S
(см)
18 15.09 В 4 50 км 10/0
[As trans]
+2.5 +1.5 93 -3 -3 1005.2 995.7
21 15.09 В 2 50 км 10/10 1000 м
[Sc]
+1.5 +0.7 94 -2 -2 1005.7 996.1
00 16.09 В 2 50 км 10/10 1000 м
[Sc]
+3.1 +2.1 93 -0 -0 1007.3 997.8 +1.5
03 16.09 Ю 2 50 км 10/4 600 м
[Cu Sc As trans]
+3.8 -3.1 61 +1 +2 1008.8 999.3
06 16.09 Ю 1 50 км 8/3 600 м
[Cu med, cong As trans Ci fib]
+4.6 -2.8 59 +4 +5 1009.9 1000.3
09 16.09 Ю 1 50 км 5/3 1000 м
[Sc Ci fib]
+6.2 -5.4 43 +6 +6 1011.4 1001.8
12 16.09 С 1 50 км 3/3 1000 м
[Sc]
-0.4 -5.7 67 -2 -2 1012.7 1003.3 +6.2
15 16.09 штиль 0 50 км ясно -4.2 -5.1 93 -5 -5 1013.8 1003.9
18 16.09 штиль 0 50 км ясно -5.8 -5.1 100 -7 -7 1015.6 1005.7
21 16.09 штиль 0 50 км ясно -6.3 -7.1 94 -7 -7 1016.5 1006.6
00 17.09 З 1 50 км 1/0
[Ci fib]
-4.2 -4.7 96 -7 -6 1017.7 1007.8 -7.6
03 17.09 Ю 1 50 км 1/0
[Ci fib]
+0.9 -3.3 73 -1 +3 1017.5 1007.8
06 17.09 В 1 50 км 3/3 600 м
[Cu Sc Ci fib]
+6.7 -3.8 47 +6 +8 1017.3 1007.7
09 17.09 З 1 50 км 4/3 1000 м
[Sc Ci fib]
+7.2 -6.7 36 +7 +7 1017.5 1008.1
12 17.09 В 1 50 км 4/0
[Cs]
+2.6 -3.7 63 +1 +1 1019.1 1009.5 +7.2
15 17.09 В 1 50 км 5/5 1000 м
[Sc]
+0.4 -4.3 71 -1 -1 1019.4 1009.7
18 17.09 В 1 50 км 4/4 1000 м
[Sc]
-0.2 -2.9 82 -2 -2 1019.1 1009.4
21 17.09 С 1 50 км 9/9 1000 м
[]
+0.1 -1.7 88 -2 -2 1019.4 1009.7
00 18.09 С 2 50 км 10/10 1000 м
[Sc]
+0.1 -0.2 98 -4 -4 1017.8 1008.1
03 18.09 С 2 50 км 10/10 1000 м
[Sc]
+1.8 -1.9 76 -1 -1 1016.7 1007.0
06 18.09 С 2 50 км {снег} 10/10 1000 м
[Sc]
+2.8 -0.5 79 -0 -0 1015.8 1006.2
09 18.09 С 1 20 км слаб. дождь 10/10 1000 м
[Sc]
+3.3 +0.7 83 +2 +2 1015.4 1005.8
12 18.09 С 1 50 км {дождь} 10/10 1000 м
[Sc]
+2.2 +0.6 89 0 0 1015.0 1005.4 +3.3 0.1
15 18.09 С 1 50 км 10/10 1000 м
[Sc]
+1.8 +1.3 96 -0 -0 1014.3 1004.7
18 18.09 С 1 50 км 10/10 1000 м
[Sc]
+1.4 +0.9 96 -1 -1 1014.3 1004.6
21 18.09 С 1 50 км 10/10 1000 м
[Sc]
+0.8 +0.5 98 -1 -1 1014.6 1004.9
00 19.09 Ю 1 500 м туман ?/? +1.4 +1.1 98 -1 -1 1014.7 1005.0 +0.8
03 19.09 Ю 1 50 км {туман} 10/8 1000 м
[Sc As trans]
+2.2 +1.4 94 0 +1 1015.0 1005.4
06 19.09 Ю 1 50 км {туман} 10/10 1000 м
[Sc]
+3.6 +0.7 81 +2 +2 1015.0 1005.4
09 19.09 С 1 50 км 10/10 1000 м
[Sc]
+3.8 +1.2 83 +2 +2 1015.4 1005.8
12 19.09 С 1 50 км 10/10 1000 м
[Sc]
+4.2 +0.5 77 +3 +3 1015.8 1006.2 +4.2
15 19.09 Ю 1 50 км 10/10 1000 м
[Sc]
+2.6 +1.3 91 +1 +1 1015.3 1005.7
18 19.09 Ю 1 50 км 10/10 1000 м
[Sc]
+2.3 +1.3 93 +1 +1 1014.9 1005.3
21 19.09 Ю 1 20 км слаб. снег 10/10 1000 м
[Sc]
+0.8 +0.5 98 -1 -1 1014.4 1004.7
00 20.09 Ю 1 20 км слаб. снег 10/10 1000 м
[Sc]
+0.8 +0.3 96 -1 -1 1013.9 1004.2 +0.8 2
03 20.09 Ю 1 50 км {снег} 10/10 600 м
[Sc]
+2.0 +0.4 89 0 0 1003.4
06 20.09 Ю 2 50 км {снег} 10/10 600 м
[Sc]
+3.5 -0.3 76 +1 +1 1011.9 1002.3
09 20.09 Ю 2 50 км 8/8 600 м
[Cu Sc]
+4.2 -1.0 69 +2 +2 1011.4 1001.8
12 20.09 С 1 50 км 3/3 1000 м
[Sc]
+1.1 -1.2 85 -1 -1 1011.1 1001.4 +5.0 0.0
15 20.09 С 1 50 км ясно -1.0 -1.9 94 -3 -3 1010.7 1001.0
18 20.09 С 1 50 км ясно -2.4 -2.7 98 -5 -5 1010.3 1000.6
21 20.09 С 1 50 км ясно -2.1 -3.0 94 -4 -4 1009.8 1000.1
00 21.09 Ю 1 50 км 3/0
[Ci fib]
+1.1 -3.8 70 -0 0 1007.8 998.2 -2.4
03 21.09 Ю 3 50 км 4/0
[Cs]
+5.7 -6.2 42 +3 +5 1004.8 995.3
06 21.09 Ю 5 50 км 10/6 1000 м
[Sc As trans]
+6.7 -6.7 38 +3 +4 1001.7 992.2
09 21.09 Ю 4 20 км слаб. дождь 10/10 1000 м
[Sc]
+4.6 -0.5 69 +1 +1 1000.1 990.6
12 21.09 З 3 20 км слаб. дождь 10/10 1000 м
[Sc]
+2.8 -1.8 72 -1 -1 998.8 989.4 +7.0 4
15 21.09 Ю 2 10 км слаб. морось {дождь} 10/10 600 м
[St]
+2.8 +2.3 97 -1 -1 997.2 987.8
18 21.09 Ю 3 50 км {дождь, морось} 10/10 600 м
[St]
+4.0 +3.8 99 0 0 996.5 987.1
21 21.09 Ю 3 50 км 10/10 600 м
[St]
+4.4 +4.2 99 +1 +1 996.3 986.9
00 22.09 Ю 2 50 км 10/10 1000 м
[Sc]
+4.3 +3.1 92 +1 +2 996.9 987.5 +2.8 0.1
03 22.09 Ю 2 50 км 9/8 600 м
[Cu Sc Ac trans]
+6.1 +4.0 86 +4 +4 997.6 988.2
06 22.09 ЮЗ 2 50 км {ливн. осадки} 9/9 600 м
[Cb cap]
+7.4 +3.2 75 +5 +6 998.1 988.9
09 22.09 Ю 2 50 км {ливн. осадки} 8/8 600 м
[Cb cap]
+7.8 +2.5 69 +6 +6 998.9 989.7
12 22.09 ЮЗ 2 20 км слаб. дождь 10/10 600 м
[Sc]
+4.6 +4.1 97 +2 +2 1002.0 992.5 +8.6 2
15 22.09 З 2 20 км слаб. дождь 10/10 1000 м
[Sc]
+3.0 +2.5 97 -0 -0 1003.8 994.3

 

Местоположение метеостанции Сухана (Якутия, Россия): широта 68.62 долгота 118.30 высота над уровнем моря 77 м.

В архиве по умолчанию представлена погода в Сухане за последнюю неделю. Архивные данные за месяц целиком и за предыдущие месяцы, начиная с января 2011 года, Вы можете получить, выбрав интересующий диапазон дат из раскрывающегося списка и нажав кнопку "Ввод!".


*Определитесь, кто Вы:
робот инопланетянин человек

Внимание! Время в таблицах - всемирное. Для получения местного времени необходимо прибавить поправку, которая равна 9 ч.

Смотрите также архив погоды в соседних городах и на ближайших метеорологических станциях:

Погода в Джарджане (Якутия, Россия) (231 км)
Погода в Оленеке (Якутия, Россия) (240 км)
Погода в Джалинде (Якутия, Россия) (241 км)
Погода в Эйке (Якутия, Россия) (291 км)
Погода в Жиганске (Якутия, Россия) (294 км)
Погода в Шелагонцах (Якутия, Россия) (316 км)
Погода в Полярном (Якутия, Россия) (326 км)
Погода в Саскылахе (Якутия, Россия) (406 км)
Погода в Тюмяти (Якутия, Россия) (415 км)
Погода в Айхале (Якутия, Россия) (419 км)

Пояснения к столбцам:

Ветер - указаны скорость ветра в м/с - средняя за 10 мин, порывы в срок и между сроками (в фигурных скобках) и направление, откуда дует ветер: С - северный, СВ - северо-восточный, В - восточный, ЮВ - юго-восточный, Ю - южный, ЮЗ - юго-западный, З - западный, СЗ - северо-западный.
Видимость - горизонтальная дальность видимости в метрах или километрах. При видимости от 1 до 10 км при отсутствии осадков обычно наблюдается дымка, при ухудшении видимости до 1 км и менее - туман. В сухую погоду видимость может ухудшаться дымом, пылью или мглою.
Явления - указаны атмосферные явления, наблюдавшиеся в срок или в последний час перед сроком; фигурными скобками обозначены явления, наблюдавшиеся между сроками (за 1-3 часа до срока); квадратными скобками обозначены град или гололедные отложения с указанием их диаметра в мм.
Облачность - указаны через наклонную черту общая и нижняя облачность в баллах и высота нижней границы облаков в метрах; квадратными скобками обозначены формы облаков: Ci - перистые, Cs - перисто-слоистые, Cc - перисто-кучевые, Ac - высококучевые, As - высокослоистые, Sc - слоисто-кучевые, Ns - слоисто-дождевые, Cu - кучевые, Cb - кучево-дождевые. Подробнее классификацию облаков см. в Атласе облаков (PDF).
T - Температура воздуха - температура, измеренная на высоте 2 м над землей.
Td - Температура точки росы - температура, при понижении до которой содержащийся в воздухе водяной пар достигнет насыщения.
f - Относительная влажность воздуха - влажноcть воздуха, измеренная на высоте 2 м над землей.
Te - Эффективная температура - температура, которую ощущает одетый по сезону человек в тени. Характеристика душности погоды. При расчете учитывается влияние влажности воздуха и скорости ветра на теплоощущения человека.
Tes - Эффективная температура на солнце - температура, которую ощущает человек, с поправкой на солнечный нагрев. Характеристика знойности погоды. Зависит от высоты солнца над горизонтом, облачности и скорости ветра. Ночью, в пасмурную погоду, а также при ветре 12 м/с и более поправка равна нулю.
P - Атмосферное давление - приведенное к уровню моря атмосферное давление.
Po - Атмосферное давление - измеренное на уровне метеостанции атмосферное давление.
Tmin - Минимальная температура - минимум температуры воздуха на высоте 2 м над землей.
Tmax - Максимальная температура - максимум температуры воздуха на высоте 2 м над землей.
R - Количество осадков - Количество выпавших осадков за период времени, мм. При наведении курсора мыши на число - период времени, за который выпало указанное количество осадков.
R24 - Количество осадков - Количество выпавших осадков за 24 часа, мм.
S - Снежный покров - Высота снежного покрова, см. При наведении курсора мыши на число - состояние снежного покрова и степень покрытия местности в баллах.